User: anonymous   Login
Location: *
(38.4303°S, 157.0822°W)
Time: 18:41:11
(UTC+00:00)
Language:

CZ-2C R/B - Orbit

View from above orbital plane
View from above orbital plane
View from above satellite
View from above satellite

Ground track
Ground track

The orbit data is extracted from the following two-line orbital elements,

1 28222U 04012C   24202.52263550  .00016447  00000-0  61120-3 0  9996
2 28222  97.8018 216.9943 0031566 294.0507  65.7428 15.27151831112205
Epoch (UTC): 20 July 2024 12:32:35
Eccentricity: 0.0031566
inclination: 97.8018°
perigee height: 462 km
apogee height: 506 km
right ascension of ascending node: 216.9943°
argument of perigee: 294.0507°
revolutions per day: 15.27151831
mean anomaly at epoch: 65.7428°
orbit number at epoch: 11220

The dashed part of the orbit path shows where the satellite is in the earth's shadow,  

DLR